Location: Arborea
(39.7744°N, 8.5819°E)
Time: 03:18:24
(UTC+00:00)

BlueWalker 3 - Visible Passes

Search period start: 26 February 2024 00:00
Search period end: 07 March 2024 00:00
Orbit: 486 x 500 km, 53.2° (Epoch: 25 February)

Date Brightness Start Highest point End Pass type
(mag) Time Alt. Az. Time Alt. Az. Time Alt. Az.
26 Feb 4.4 18:00:18 10° NNW 18:01:08 11° N 18:01:58 10° NNE visible
26 Feb 4.7 19:38:13 10° NNW 19:38:38 12° NNW 19:38:38 12° NNW visible
27 Feb 4.3 19:14:24 10° NNW 19:15:48 15° N 19:15:48 15° N visible
28 Feb 3.9 18:50:33 10° NNW 18:52:59 16° NNE 18:52:59 16° NNE visible
29 Feb 3.9 18:26:42 10° NNW 18:29:06 16° NNE 18:30:11 14° NE visible
29 Feb 5.0 20:04:14 10° NW 20:04:40 13° NW 20:04:40 13° NW visible
01 Mar 3.9 18:02:49 10° NNW 18:05:11 16° NNE 18:07:25 10° NE visible
01 Mar 4.1 19:40:21 10° NW 19:41:55 23° NW 19:41:55 23° NW visible
02 Mar 2.8 19:16:27 10° NW 19:19:12 42° NNW 19:19:12 42° NNW visible
03 Mar 1.9 18:52:31 10° NW 18:56:15 56° NE 18:56:33 54° ENE visible
04 Mar 2.1 18:28:34 10° NW 18:32:17 54° NE 18:34:00 28° ESE visible
04 Mar 4.9 20:07:40 10° W 20:08:30 13° W 20:08:30 13° W visible
05 Mar 2.1 18:04:36 10° NW 18:08:19 52° NE 18:11:33 13° ESE visible
05 Mar 4.3 19:43:38 10° W 19:46:03 18° WSW 19:46:03 18° WSW visible
06 Mar 4.2 19:19:34 10° W 19:22:19 19° SW 19:23:44 16° SSW visible
